[[{"header":{"parameterUnit":"m.s-1","parameterCategory":2,"la1":30.2991,"la2":30.254,"lo1":-89.0895,"lo2":-89.0444,"dy":0.0017,"dx":0.0017,"nx":28,"ny":28,"refTime":"2024-06-30T09:00:00:Z","depth":"0","parameterNumber":2,"parameterNumberName":"U-component_of_CURRENTS"},"data":[0,0,0,0,0,0,0,0,0,0,0,0,0,0,0,0,0,0,0,0,0,0,0,0,0,0,0,0,0,0,0,0,0,0,0,0,0,0,0,0,0,0,0,0,0,0,0,0,0,0,0,0,0,0,0,0,0,0,0.3519,0.352,0,0.3573,0.3573,0.3573,0.3592,0.3592,0.3593,0.3593,0.3633,0.3633,0.3634,0,0,0,0,0,0,0,0,0,0,0,0,0,0.3432,0.3433,0.3519,0.352,0.3521,0.3573,0.3573,0.3573,0.3592,0.3592,0.3593,0.3593,0.3632,0.3633,0.3634,0,0,0,0,0,0,0,0,0,0,0,0,0,0.3471,0.3434,0.3518,0.3541,0.3544,0.3573,0.3573,0.3573,0.3592,0.3592,0.3593,0.3593,0.3632,0.3633,0.3634,0.3632,0,0,0.3638,0.3638,0,0,0,0,0,0,0,0,0.3469,0.3474,0.3536,0.3539,0.3543,0.3581,0.3558,0.3594,0.3592,0.3568,0.3593,0.3593,0.3617,0.362,0.3621,0.3634,0.3636,0.3638,0.3639,0.3639,0.364,0,0,0,0,0,0,0,0.3466,0.3471,0.3534,0.3538,0.3542,0.3549,0.3554,0.3564,0.3585,0.357,0.3573,0.3588,0.3618,0.362,0.3622,0.3636,0.3638,0.3639,0.364,0.364,0.3718,0.372,0,0,0,0,0,0,0.3471,0.3469,0.3533,0.3537,0.3513,0.3551,0.3556,0.3564,0.3585,0.359,0.3587,0.3588,0.3618,0.3621,0.3624,0.3679,0.3639,0.364,0.3641,0.3717,0.3719,0.372,0,0,0,0,0,0,0.3468,0.3475,0.3531,0.3509,0.3517,0.3552,0.356,0.3565,0.3571,0.3599,0.3603,0.359,0.3618,0.3622,0.3648,0.3679,0.3641,0.3642,0.3715,0.3718,0.3719,0.3754,0,0,0,0,0,0,0.3465,0.3474,0.3473,0.3509,0.3519,0.3545,0.356,0.3566,0.3582,0.3584,0.3603,0.3607,0.3619,0.3646,0.3649,0.368,0.3643,0.3714,0.3716,0.3719,0.3751,0.3757,0.3762,0,0,0,0,0,0.3462,0.3462,0.3473,0.3481,0.3519,0.3545,0.355,0.3573,0.3582,0.358,0.3607,0.3606,0.3665,0.3648,0.3651,0.3683,0.3712,0.3716,0.3719,0.3748,0.3756,0.3762,0,0,0,0,0,0,0.3418,0.3466,0.3478,0.3491,0.3516,0.3551,0.3556,0.3572,0.3589,0.3597,0.3616,0.3621,0.3667,0.3663,0.3643,0.3715,0.3692,0.3696,0.3714,0.3721,0.3726,0.3746,0.3644,0,0,0,0,0,0.341,0.3426,0.3468,0.3476,0.349,0.3521,0.3534,0.3553,0.3581,0.3588,0.3603,0.3633,0.3681,0.3689,0.372,0.3741,0.3793,0.3766,0.3772,0.3776,0.3796,0.393,0.395,0.373,0.373,0.373,0,0,0.3397,0.3425,0.3434,0.3468,0.349,0.3518,0.3528,0.3552,0.3581,0.359,0.362,0.3654,0.3694,0.3738,0.3756,0.3735,0.386,0.378,0.3784,0.3802,0.3935,0.3957,0.3977,0.3733,0.3732,0.3732,0,0,0.3392,0.3402,0.3423,0.3443,0.3485,0.3509,0.3517,0.3553,0.3571,0.3603,0.3642,0.3695,0.372,0.3777,0.3807,0.3857,0.3895,0.3858,0.389,0.4019,0.4039,0.4057,0.4123,0.4148,0.3848,0.3848,0.3848,0,0.3377,0.3405,0.3429,0.3455,0.3475,0.3507,0.3532,0.356,0.3598,0.363,0.3615,0.3728,0.3752,0.3854,0.3877,0.3873,0.3933,0.3859,0.4029,0.4048,0.4066,0.4131,0.4157,0.385,0.385,0.385,0.385,0,0.3399,0.3414,0.3425,0.3473,0.3493,0.3515,0.3563,0.3588,0.3612,0.3652,0.374,0.3784,0.3861,0.3874,0.389,0.403,0.4026,0.4032,0.4015,0.4091,0.4152,0.4179,0.3853,0.3852,0.3852,0.3851,0,0,0.3391,0.3433,0.3437,0.3449,0.3503,0.3518,0.3575,0.364,0.3688,0.3733,0.3809,0.3899,0.3938,0.3978,0.4013,0.4106,0.4272,0.4121,0.4126,0.419,0.4531,0.4414,0.4432,0.432,0.4326,0.433,0.4513,0,0.3403,0.3435,0.3463,0.3491,0.351,0.3553,0.36,0.3664,0.3717,0.3793,0.3882,0.3957,0.3975,0.4013,0.4128,0.4245,0.4349,0.4219,0.4445,0.4451,0.4343,0.4462,0.4226,0.4361,0.4539,0.4543,0.4547,0,0.3427,0.3442,0.3466,0.3498,0.3512,0.3536,0.3613,0.3659,0.3786,0.3832,0.3947,0.4013,0.4171,0.416,0.4429,0.4351,0.446,0.4531,0.4541,0.4445,0.4386,0.432,0.4403,0.4196,0.4588,0.4585,0.4582,0,0.3409,0.3443,0.3454,0.3464,0.3515,0.3537,0.357,0.3673,0.372,0.3863,0.3919,0.4111,0.4198,0.4392,0.454,0.4516,0.481,0.4796,0.479,0.4781,0.463,0.4597,0.4545,0.501,0.501,0.5009,0.5009,0,0.3413,0.3419,0.3439,0.3443,0.346,0.3507,0.355,0.3618,0.3728,0.3801,0.394,0.4035,0.427,0.4444,0.4591,0.4767,0.487,0.4832,0.4846,0.4627,0.4594,0.4444,0.4385,0.5016,0.5015,0.5013,0.5012,0,0.3393,0.3409,0.3414,0.3444,0.3449,0.3459,0.3507,0.3548,0.3657,0.3763,0.381,0.4023,0.4245,0.4443,0.4735,0.48,0.4833,0.5014,0.47,0.4673,0.444,0.4393,0.4345,0.4247,0.5054,0.5053,0.5052,0,0.3387,0.3386,0.3391,0.3381,0.3388,0.3402,0.3418,0.3507,0.3553,0.3748,0.3802,0.4026,0.4172,0.4516,0.4685,0.4908,0.4781,0.4778,0.4696,0.4417,0.4379,0.4254,0.4166,0.4505,0.45,0.4495,0.4492,0,0.3367,0.3364,0.336,0.3338,0.3333,0.3326,0.3354,0.3379,0.3502,0.3603,0.3757,0.3882,0.4177,0.4278,0.4515,0.4637,0.4486,0.4689,0.4516,0.4047,0.3801,0.3711,0.4353,0.4451,0.4455,0.4458,0.446,0.4462,0.3343,0.3325,0.3311,0.3284,0.3267,0.3242,0.3216,0.3276,0.3341,0.3459,0.3637,0.3726,0.3869,0.4176,0.4268,0.415,0.4266,0.4024,0.4024,0.3948,0.3735,0.425,0.4285,0.4288,0.4291,0.4293,0.4295,0,0.3307,0.3285,0.3256,0.3204,0.3146,0.3167,0.3163,0.3131,0.3169,0.3295,0.3414,0.3415,0.3456,0.3551,0.3561,0.3474,0.3401,0.3364,0.312,0.3102,0.3651,0.3499,0.3222,0.3222,0.3222,0.3222,0.3223,0.3223,0.3287,0.3241,0.3216,0.3099,0.3051,0.2951,0.2927,0.2915,0.2946,0.2924,0.2878,0.2958,0.3001,0.3003,0.2865,0.2835,0.2663,0.2547,0.2619,0.2939,0.2998,0.3054,0.2892,0.2493,0.2492,0.1906,0.1901,0.1898]},{"header":{"parameterUnit":"m.s-1","parameterCategory":2,"la1":30.2991,"la2":30.254,"lo1":-89.0895,"lo2":-89.0444,"dy":0.0017,"dx":0.0017,"nx":28,"ny":28,"refTime":"2024-06-30T09:00:00:Z","depth":"0","parameterNumber":3,"parameterNumberName":"V-component_of_CURRENTS"},"data":[0,0,0,0,0,0,0,0,0,0,0,0,0,0,0,0,0,0,0,0,0,0,0,0,0,0,0,0,0,0,0,0,0,0,0,0,0,0,0,0,0,0,0,0,0,0,0,0,0,0,0,0,0,0,0,0,0,0,0.1366,0.1366,0,0.1363,0.1362,0.1362,0.1316,0.1315,0.1315,0.1314,0.1224,0.1222,0.1221,0,0,0,0,0,0,0,0,0,0,0,0,0,0.1305,0.1306,0.1366,0.1366,0.1366,0.1363,0.1362,0.1362,0.1317,0.1315,0.1314,0.1313,0.1224,0.1223,0.1221,0,0,0,0,0,0,0,0,0,0,0,0,0,0.1317,0.1307,0.1366,0.1345,0.1344,0.1363,0.1362,0.1362,0.1317,0.1315,0.1314,0.1313,0.1225,0.1223,0.1221,0.1233,0,0,0.1213,0.1212,0,0,0,0,0,0,0,0,0.1316,0.1319,0.1348,0.1347,0.1345,0.1341,0.1308,0.1316,0.1317,0.1324,0.1314,0.1312,0.1258,0.1253,0.1252,0.1229,0.1225,0.1213,0.1212,0.1211,0.121,0,0,0,0,0,0,0,0.1315,0.1319,0.1362,0.1349,0.1347,0.1327,0.1327,0.1309,0.1295,0.1323,0.1321,0.1325,0.1256,0.1255,0.125,0.1224,0.1213,0.1211,0.121,0.1209,0.1151,0.1151,0,0,0,0,0,0,0.1325,0.1318,0.1362,0.1362,0.133,0.1329,0.1329,0.1341,0.1297,0.129,0.1326,0.1323,0.126,0.1253,0.1246,0.1243,0.1211,0.1209,0.1207,0.1151,0.1151,0.1151,0,0,0,0,0,0,0.1324,0.1329,0.1362,0.1341,0.1344,0.1332,0.1346,0.1342,0.1343,0.1301,0.1291,0.1331,0.1258,0.125,0.1231,0.124,0.1208,0.1205,0.1152,0.1151,0.1151,0.1247,0,0,0,0,0,0,0.1322,0.1329,0.1345,0.1343,0.1346,0.1378,0.1347,0.1343,0.1349,0.1345,0.1302,0.1292,0.1256,0.1235,0.1228,0.1236,0.1204,0.1152,0.1152,0.1151,0.1244,0.125,0.1255,0,0,0,0,0,0.132,0.1347,0.1346,0.1352,0.1368,0.138,0.138,0.1363,0.1351,0.1358,0.1325,0.1294,0.1227,0.1234,0.1226,0.1233,0.1152,0.1152,0.1151,0.1241,0.1249,0.1255,0,0,0,0,0,0,0.1328,0.1346,0.1344,0.1375,0.138,0.1373,0.1383,0.1374,0.1358,0.1351,0.1304,0.1293,0.1278,0.1241,0.1248,0.1211,0.118,0.1178,0.1251,0.1257,0.1263,0.1291,0.1202,0,0,0,0,0,0.1341,0.1365,0.1373,0.1397,0.1403,0.1396,0.1401,0.1393,0.1378,0.137,0.1342,0.1302,0.1273,0.1254,0.1225,0.1215,0.1177,0.1207,0.1213,0.1218,0.1234,0.1189,0.1193,0.115,0.115,0.115,0,0,0.1348,0.1364,0.1375,0.14,0.1402,0.1422,0.1395,0.1409,0.1421,0.1363,0.1366,0.133,0.1276,0.1261,0.1249,0.123,0.1207,0.1218,0.1223,0.1236,0.1189,0.1194,0.1198,0.115,0.115,0.115,0,0,0.1373,0.1392,0.1417,0.143,0.1446,0.1447,0.1456,0.1456,0.1449,0.145,0.1407,0.1381,0.1339,0.1305,0.128,0.1299,0.1244,0.1279,0.1329,0.1286,0.129,0.1293,0.1245,0.1243,0.1276,0.1276,0.1276,0,0.1375,0.1418,0.1424,0.1453,0.1473,0.1463,0.1493,0.1491,0.1483,0.1487,0.1457,0.1404,0.136,0.1342,0.1344,0.1315,0.1279,0.1314,0.1297,0.1299,0.13,0.125,0.1247,0.1281,0.128,0.128,0.1279,0,0.1418,0.1453,0.1471,0.1507,0.1529,0.1553,0.156,0.1572,0.1563,0.1557,0.1543,0.1482,0.1453,0.1425,0.1392,0.138,0.1348,0.1317,0.1289,0.1311,0.1256,0.1251,0.1287,0.1286,0.1284,0.1283,0,0,0.1406,0.1484,0.1488,0.1523,0.1563,0.1584,0.1616,0.1642,0.1668,0.1635,0.1656,0.1593,0.1568,0.1538,0.1486,0.1441,0.1415,0.1392,0.1387,0.1361,0.1317,0.1276,0.1265,0.1384,0.1383,0.1383,0.1274,0,0.143,0.15,0.1536,0.1602,0.1638,0.166,0.1696,0.1719,0.1723,0.1741,0.168,0.1673,0.1608,0.1595,0.1547,0.1467,0.1407,0.1448,0.1285,0.1281,0.1255,0.126,0.1229,0.1128,0.1268,0.1267,0.1267,0,0.1454,0.1504,0.1572,0.1663,0.1682,0.1718,0.1786,0.1818,0.1842,0.1845,0.183,0.1794,0.1752,0.1677,0.1546,0.1578,0.1458,0.1371,0.1364,0.1293,0.123,0.1126,0.1112,0.0941,0.1258,0.1259,0.1259,0,0.144,0.153,0.159,0.1617,0.1709,0.1746,0.1793,0.1842,0.1881,0.1911,0.1933,0.1885,0.1855,0.1726,0.1576,0.1559,0.1417,0.1364,0.1199,0.1194,0.1121,0.111,0.0938,0.1239,0.1239,0.1239,0.124,0,0.145,0.1496,0.1587,0.1617,0.1692,0.1758,0.1834,0.1876,0.1942,0.1993,0.1982,0.1994,0.1863,0.1776,0.1618,0.1417,0.1446,0.1215,0.1167,0.1151,0.1145,0.0953,0.0902,0.1235,0.1236,0.1237,0.1238,0,0.1412,0.1477,0.1545,0.1649,0.1684,0.1732,0.1854,0.1911,0.1977,0.2042,0.2056,0.207,0.1975,0.1827,0.1625,0.1464,0.1187,0.118,0.1176,0.113,0.0813,0.077,0.0595,0.0562,0.0981,0.098,0.0978,0,0.1396,0.1427,0.1542,0.1588,0.1632,0.1721,0.1789,0.19,0.1973,0.2076,0.2107,0.207,0.2055,0.1787,0.1521,0.1254,0.1115,0.101,0.096,0.0796,0.0713,0.0692,0.0678,0.0889,0.0887,0.0886,0.0884,0,0.1351,0.139,0.1449,0.1542,0.162,0.1721,0.1832,0.1897,0.203,0.2111,0.2188,0.2195,0.198,0.174,0.1409,0.1204,0.0929,0.0965,0.0792,0.0631,0.0602,0.0548,0.0959,0.087,0.0871,0.0872,0.0873,0.0874,0.1298,0.1326,0.1407,0.1493,0.1595,0.171,0.1779,0.1917,0.2046,0.2195,0.2229,0.2258,0.1922,0.1491,0.1236,0.0717,0.0786,0.0528,0.049,0.0483,0.0455,0.084,0.0704,0.0704,0.0705,0.0705,0.0705,0,0.1222,0.1279,0.1358,0.1474,0.1569,0.1645,0.1802,0.1889,0.2032,0.22,0.2302,0.2113,0.1705,0.1271,0.0612,0.0291,0.0228,0.0121,0.007,0.0079,0.0391,0.0389,0.0183,0.0184,0.0184,0.0184,0.0184,0.0184,0.1183,0.1229,0.1287,0.1417,0.1508,0.1622,0.1704,0.1861,0.2002,0.2155,0.217,0.2202,0.1823,0.0748,0.0017,-0.013,-0.028,-0.0328,-0.0369,-0.0197,-0.0162,-0.0129,-0.0148,-0.0462,-0.0463,-0.0659,-0.0661,-0.0663]}],[{"header":{"parameterUnit":"m.s-1","parameterCategory":2,"la1":30.2991,"la2":30.254,"lo1":-89.0895,"lo2":-89.0444,"dy":0.0017,"dx":0.0017,"nx":28,"ny":28,"refTime":"2024-06-30T09:00:00:Z","depth":"2","parameterNumber":2,"parameterNumberName":"U-component_of_CURRENTS"},"data":[0,0,0,0,0,0,0,0,0,0,0,0,0,0,0,0,0,0,0,0,0,0,0,0,0,0,0,0,0,0,0,0,0,0,0,0,0,0,0,0,0,0,0,0,0,0,0,0,0,0,0,0,0,0,0,0,0,0,0.2869,0.2869,0,0.2874,0.2874,0.2874,0.2851,0.2851,0.285,0.285,0.2828,0.2828,0.2828,0,0,0,0,0,0,0,0,0,0,0,0,0,0.2825,0.2826,0.2869,0.2869,0.287,0.2874,0.2874,0.2874,0.2851,0.2851,0.285,0.285,0.2829,0.2828,0.2828,0,0,0,0,0,0,0,0,0,0,0,0,0,0.2835,0.2826,0.2869,0.2862,0.2862,0.2874,0.2874,0.2874,0.2851,0.2851,0.285,0.285,0.2829,0.2828,0.2828,0.2834,0,0,0.2826,0.2826,0,0,0,0,0,0,0,0,0.2834,0.2836,0.2862,0.2862,0.2862,0.2865,0.2851,0.286,0.2851,0.2851,0.285,0.285,0.2841,0.284,0.2836,0.2833,0.2832,0.2826,0.2826,0.2826,0.2826,0,0,0,0,0,0,0,0.2834,0.2836,0.2867,0.2863,0.2863,0.2854,0.2855,0.2852,0.2845,0.2851,0.285,0.2857,0.284,0.2837,0.2836,0.2832,0.2826,0.2826,0.2826,0.2826,0.2877,0.2879,0,0,0,0,0,0,0.2843,0.2835,0.2867,0.2867,0.2852,0.2856,0.2856,0.2861,0.2845,0.2844,0.2858,0.2856,0.2838,0.2836,0.2835,0.2873,0.2826,0.2826,0.2825,0.2876,0.2878,0.2879,0,0,0,0,0,0,0.2842,0.2845,0.2866,0.2855,0.2857,0.2858,0.2863,0.2862,0.2852,0.2852,0.2849,0.285,0.2837,0.2835,0.2848,0.2871,0.2825,0.2825,0.2874,0.2876,0.2879,0.2929,0,0,0,0,0,0,0.284,0.2845,0.2842,0.2855,0.2859,0.2871,0.2864,0.2862,0.286,0.2858,0.2844,0.2842,0.2837,0.2849,0.2848,0.2869,0.2825,0.2872,0.2875,0.2878,0.2925,0.2933,0.2939,0,0,0,0,0,0.2839,0.2838,0.2842,0.2845,0.2857,0.2872,0.2872,0.2868,0.286,0.2857,0.2863,0.2842,0.2868,0.285,0.2848,0.287,0.287,0.2874,0.2878,0.2922,0.2931,0.2939,0,0,0,0,0,0,0.2807,0.2837,0.284,0.2845,0.2858,0.287,0.2864,0.2866,0.2866,0.2863,0.2858,0.2857,0.2882,0.287,0.285,0.2897,0.2867,0.2871,0.2902,0.2911,0.2918,0.2927,0.2824,0,0,0,0,0,0.2804,0.281,0.2838,0.2836,0.2846,0.2854,0.2856,0.286,0.2869,0.2866,0.2864,0.2872,0.2897,0.2897,0.291,0.2924,0.2948,0.294,0.2947,0.2953,0.2962,0.3029,0.3044,0.2892,0.2892,0.2891,0,0,0.2784,0.2805,0.2803,0.283,0.2836,0.2858,0.2852,0.2859,0.2879,0.2865,0.288,0.2894,0.291,0.294,0.2949,0.2928,0.3012,0.2958,0.2963,0.2969,0.3035,0.305,0.3063,0.2894,0.2894,0.2893,0,0,0.2766,0.2774,0.2783,0.2804,0.2831,0.2845,0.285,0.2868,0.2876,0.2899,0.2912,0.2942,0.295,0.2982,0.2998,0.3049,0.3054,0.3049,0.3083,0.3148,0.3161,0.3173,0.3235,0.3252,0.3045,0.3045,0.3045,0,0.274,0.2763,0.2783,0.2811,0.2825,0.2844,0.2861,0.2883,0.2903,0.2922,0.2907,0.2972,0.2977,0.3046,0.3071,0.3065,0.3103,0.3047,0.3158,0.317,0.3181,0.3242,0.3259,0.3048,0.3047,0.3047,0.3047,0,0.2749,0.2764,0.277,0.2814,0.2833,0.2846,0.2892,0.2912,0.2923,0.295,0.3007,0.3032,0.3072,0.3085,0.3093,0.3181,0.3184,0.3165,0.3135,0.32,0.3259,0.3277,0.3052,0.3051,0.305,0.3049,0,0,0.2702,0.2761,0.2764,0.2783,0.2836,0.2851,0.2899,0.2948,0.2985,0.3015,0.3068,0.3126,0.3144,0.3166,0.3187,0.3242,0.3357,0.3239,0.3241,0.3299,0.3512,0.3343,0.3346,0.3361,0.3364,0.3366,0.3526,0,0.2699,0.2738,0.2774,0.2805,0.2828,0.2871,0.2917,0.2968,0.3007,0.3067,0.3121,0.3181,0.3176,0.3208,0.3266,0.3341,0.3405,0.3316,0.3442,0.3446,0.3286,0.3361,0.2989,0.3084,0.3543,0.3546,0.3548,0,0.2708,0.2733,0.2759,0.2812,0.2826,0.2853,0.2922,0.2964,0.3063,0.3103,0.3175,0.3224,0.3332,0.3307,0.3469,0.3416,0.3473,0.3519,0.3526,0.336,0.3309,0.3092,0.3099,0.3578,0.3575,0.3573,0.3571,0,0.2675,0.2725,0.2738,0.2757,0.2825,0.2846,0.2879,0.2967,0.3011,0.3131,0.3184,0.3306,0.3373,0.3474,0.3567,0.3537,0.3735,0.3698,0.3605,0.3594,0.3296,0.3252,0.3815,0.3815,0.3815,0.3814,0.3814,0,0.2664,0.2677,0.2722,0.2733,0.2759,0.2816,0.2857,0.2922,0.3019,0.3089,0.3196,0.3277,0.3419,0.3538,0.3613,0.3662,0.3776,0.3629,0.3626,0.3301,0.3258,0.369,0.3673,0.382,0.3819,0.3818,0.3817,0,0.2626,0.2655,0.2676,0.273,0.2743,0.276,0.2822,0.286,0.297,0.3068,0.3116,0.3285,0.3445,0.3575,0.3749,0.3694,0.3777,0.3766,0.3372,0.3316,0.3587,0.3572,0.3677,0.3673,0.3669,0.3665,0.3663,0,0.2606,0.2615,0.2654,0.2653,0.2669,0.2697,0.2719,0.282,0.2871,0.3066,0.3116,0.3302,0.3399,0.3568,0.3495,0.3562,0.3763,0.3279,0.3128,0.3588,0.3575,0.3566,0.3556,0.2779,0.2769,0.2761,0.2755,0,0.2567,0.2581,0.2594,0.2588,0.2597,0.2614,0.2659,0.2694,0.2835,0.293,0.3064,0.3152,0.3235,0.3105,0.3149,0.3131,0.3225,0.3113,0.3728,0.2844,0.2745,0.2731,0.275,0.2683,0.2691,0.2696,0.27,0.2702,0.2528,0.2518,0.2521,0.2512,0.2511,0.2509,0.2495,0.2571,0.2634,0.2677,0.2828,0.2836,0.2822,0.2668,0.2623,0.2566,0.2765,0.267,0.2693,0.2726,0.2566,0.2462,0.232,0.2324,0.2328,0.2332,0.2335,0,0.2453,0.2443,0.2435,0.2402,0.2352,0.2399,0.2429,0.2396,0.2418,0.2434,0.2428,0.2181,0.2078,0.2207,0.1934,0.187,0.1831,0.1884,0.1831,0.1897,0.1957,0.176,0.1301,0.1299,0.1297,0.1296,0,0,0.2409,0.236,0.2353,0.2242,0.2216,0.2139,0.2136,0.2114,0.2111,0.1955,0.1882,0.1842,0.2046,0.164,0.1536,0.1425,0.1666,0.135,0.2151,0.2149,0.2209,0.2349,0.211,0,0,0,0,0]},{"header":{"parameterUnit":"m.s-1","parameterCategory":2,"la1":30.2991,"la2":30.254,"lo1":-89.0895,"lo2":-89.0444,"dy":0.0017,"dx":0.0017,"nx":28,"ny":28,"refTime":"2024-06-30T09:00:00:Z","depth":"2","parameterNumber":3,"parameterNumberName":"V-component_of_CURRENTS"},"data":[0,0,0,0,0,0,0,0,0,0,0,0,0,0,0,0,0,0,0,0,0,0,0,0,0,0,0,0,0,0,0,0,0,0,0,0,0,0,0,0,0,0,0,0,0,0,0,0,0,0,0,0,0,0,0,0,0,0,-0.019,-0.019,0,-0.0204,-0.0204,-0.0204,-0.0222,-0.0222,-0.0223,-0.0223,-0.0271,-0.0272,-0.0273,0,0,0,0,0,0,0,0,0,0,0,0,0,-0.0198,-0.0197,-0.019,-0.019,-0.019,-0.0204,-0.0204,-0.0204,-0.0222,-0.0223,-0.0223,-0.0223,-0.0271,-0.0272,-0.0273,0,0,0,0,0,0,0,0,0,0,0,0,0,-0.02,-0.0197,-0.019,-0.0202,-0.0203,-0.0204,-0.0204,-0.0204,-0.0222,-0.0223,-0.0223,-0.0224,-0.027,-0.0272,-0.0273,-0.027,0,0,-0.0277,-0.0278,0,0,0,0,0,0,0,0,-0.02,-0.02,-0.02,-0.0201,-0.0202,-0.0213,-0.0225,-0.0228,-0.0222,-0.0214,-0.0223,-0.0224,-0.0255,-0.0258,-0.0257,-0.0273,-0.0275,-0.0278,-0.0278,-0.0279,-0.0279,0,0,0,0,0,0,0,-0.02,-0.02,-0.0195,-0.02,-0.0202,-0.0213,-0.0214,-0.0225,-0.0231,-0.0214,-0.0216,-0.0219,-0.0256,-0.0256,-0.0259,-0.0275,-0.0277,-0.0279,-0.028,-0.028,-0.0282,-0.0281,0,0,0,0,0,0,-0.0198,-0.0199,-0.0194,-0.0195,-0.0204,-0.0212,-0.0213,-0.0208,-0.023,-0.0234,-0.0218,-0.022,-0.0253,-0.0257,-0.026,-0.0211,-0.0279,-0.028,-0.0281,-0.0282,-0.0281,-0.0281,0,0,0,0,0,0,-0.0198,-0.0197,-0.0194,-0.0199,-0.0199,-0.0212,-0.0206,-0.0208,-0.0192,-0.0233,-0.0237,-0.0199,-0.0254,-0.0258,-0.0246,-0.0215,-0.0281,-0.0282,-0.0283,-0.0282,-0.0281,-0.0142,0,0,0,0,0,0,-0.0198,-0.0197,-0.0178,-0.0198,-0.0199,-0.0172,-0.0205,-0.0208,-0.0195,-0.0196,-0.0218,-0.0224,-0.0254,-0.0243,-0.0247,-0.0218,-0.0283,-0.0284,-0.0283,-0.0281,-0.0148,-0.0136,-0.0127,0,0,0,0,0,-0.0198,-0.017,-0.0176,-0.0175,-0.0177,-0.0171,-0.0171,-0.0182,-0.0193,-0.0172,-0.0186,-0.0222,-0.0238,-0.0242,-0.0248,-0.0218,-0.0285,-0.0283,-0.0282,-0.0152,-0.0139,-0.0127,0,0,0,0,0,0,-0.0152,-0.017,-0.0177,-0.0152,-0.0152,-0.0174,-0.0154,-0.0165,-0.0159,-0.0155,-0.0199,-0.0204,-0.0186,-0.0224,-0.0228,-0.0219,-0.0273,-0.0272,-0.0173,-0.016,-0.015,-0.0159,-0.0284,0,0,0,0,0,-0.0136,-0.012,-0.014,-0.0112,-0.0113,-0.0129,-0.0123,-0.0129,-0.0136,-0.0133,-0.0141,-0.0164,-0.0185,-0.0187,-0.0206,-0.0189,-0.0248,-0.0182,-0.0171,-0.0161,-0.0175,-0.0242,-0.0238,-0.0275,-0.0275,-0.0275,0,0,-0.0108,-0.0115,-0.0104,-0.0101,-0.0104,-0.0089,-0.0125,-0.0104,-0.0086,-0.0139,-0.0097,-0.0118,-0.0173,-0.0155,-0.0152,-0.0179,-0.0173,-0.0159,-0.015,-0.017,-0.024,-0.0236,-0.0233,-0.0274,-0.0274,-0.0274,0,0,-0.0057,-0.0052,-0.0031,-0.0027,-0.0025,-0.0035,-0.0024,-0.0023,-0.0016,0.002,-0.0027,-0.0033,-0.0032,-0.0076,-0.0103,-0.0051,-0.0114,-0.0047,0.0003,-0.0059,-0.0057,-0.0056,-0.0085,-0.0087,-0.0042,-0.0042,-0.0042,0,-0.0022,-0.0001,-0.0018,0.0001,0.0013,-0.0008,0.0022,0.0024,0.0038,0.0042,0.0053,0.0024,-0.0006,-0.0039,-0.0012,-0.0027,-0.006,-0.0032,-0.0045,-0.0045,-0.0047,-0.0077,-0.0082,-0.0035,-0.0036,-0.0036,-0.0037,0,0.0029,0.0057,0.0075,0.0087,0.0101,0.0131,0.0121,0.0149,0.0164,0.0156,0.0164,0.0129,0.0102,0.0097,0.0067,0.0041,0.0025,-0.0019,-0.0072,-0.0034,-0.0068,-0.0076,-0.0025,-0.0027,-0.0029,-0.0031,0,0,0.0079,0.0103,0.0115,0.0136,0.0152,0.0168,0.0202,0.0212,0.023,0.0247,0.0262,0.0231,0.0212,0.0178,0.0133,0.0084,0.0074,0.0048,0.0042,0.003,-0.0032,-0.0005,-0.0011,0.0037,0.0035,0.0034,-0.0037,0,0.0127,0.0177,0.0179,0.0244,0.0267,0.0267,0.0299,0.0308,0.0318,0.0337,0.0278,0.0283,0.0238,0.0246,0.0189,0.0102,0.0054,0.0099,-0.0078,-0.0083,-0.0056,-0.002,-0.0035,-0.0097,-0.0045,-0.0046,-0.0047,0,0.0171,0.0199,0.0261,0.0313,0.0325,0.0367,0.0407,0.0435,0.0427,0.0438,0.0414,0.0375,0.0319,0.0279,0.0134,0.0173,0.0083,0.0006,0.0,-0.0038,-0.0071,-0.0137,-0.0114,-0.0061,-0.006,-0.0059,-0.0058,0,0.0197,0.0261,0.0314,0.0333,0.0382,0.0423,0.0459,0.0473,0.05,0.0502,0.0527,0.0439,0.0427,0.0287,0.0166,0.015,0.0007,-0.0047,-0.012,-0.0118,-0.0203,-0.0205,-0.0174,-0.0174,-0.0174,-0.0173,-0.0173,0,0.0233,0.0281,0.0339,0.037,0.0446,0.0474,0.0548,0.0568,0.0598,0.064,0.0586,0.0602,0.043,0.0339,0.0193,0.0043,0.0025,-0.0108,-0.014,-0.0148,-0.0145,-0.0187,-0.0188,-0.0176,-0.0175,-0.0175,-0.0174,0,0.0244,0.0282,0.0348,0.0425,0.0459,0.0518,0.0615,0.066,0.0694,0.0748,0.076,0.0721,0.0635,0.0457,0.025,0.0102,-0.0066,-0.0124,-0.0092,-0.0119,-0.0159,-0.0152,-0.0227,-0.0226,-0.0226,-0.0226,-0.0226,0,0.0248,0.0284,0.0385,0.0434,0.0478,0.0571,0.0636,0.0702,0.0754,0.0828,0.0856,0.0817,0.0815,0.0551,0.0266,0.0016,-0.0016,-0.0162,-0.0217,-0.0144,-0.0168,-0.0161,-0.0154,-0.0266,-0.0266,-0.0266,-0.0266,0,0.0257,0.03,0.0357,0.0455,0.0542,0.0632,0.0737,0.0797,0.0885,0.0965,0.1054,0.1072,0.0843,0.0601,0.0277,0.0093,-0.0122,-0.0172,-0.0132,-0.023,-0.0182,-0.0204,-0.0197,-0.0268,-0.0267,-0.0267,-0.0267,-0.0267,0.0267,0.031,0.0391,0.0483,0.0582,0.07,0.079,0.0916,0.1054,0.1174,0.1151,0.1182,0.0879,0.0477,0.0205,-0.009,-0.011,-0.025,-0.025,-0.025,-0.0222,-0.0174,-0.0251,-0.0251,-0.0251,-0.0251,-0.0251,0,0.0268,0.0328,0.0413,0.0534,0.0641,0.0698,0.0856,0.0977,0.1178,0.125,0.1314,0.1045,0.0797,0.0522,0.0064,-0.0215,-0.0252,-0.0267,-0.0282,-0.0281,-0.028,-0.0253,-0.0292,-0.0292,-0.0292,-0.0292,0,0,0.0274,0.0346,0.0396,0.0561,0.0659,0.0822,0.0926,0.1137,0.1248,0.135,0.1343,0.1204,0.0879,0.0532,0.016,-0.0047,-0.0089,-0.0083,-0.0037,-0.0015,-0.0009,-0.0274,-0.0232,0,0,0,0,0]}],[{"header":{"parameterUnit":"m.s-1","parameterCategory":2,"la1":30.2991,"la2":30.254,"lo1":-89.0895,"lo2":-89.0444,"dy":0.0017,"dx":0.0017,"nx":28,"ny":28,"refTime":"2024-06-30T09:00:00:Z","depth":"4","parameterNumber":2,"parameterNumberName":"U-component_of_CURRENTS"},"data":[0,0,0,0,0,0,0,0,0,0,0,0,0,0,0,0,0,0,0,0,0,0,0,0,0,0,0,0,0,0,0,0,0,0,0,0,0,0,0,0,0,0,0,0,0,0,0,0,0,0,0,0,0,0,0,0,0,0,0.0359,0.0359,0,0.0447,0.0449,0.045,0.0615,0.0618,0.0621,0.0624,0.0772,0.0773,0.0775,0,0,0,0,0,0,0,0,0,0,0,0,0,0.0324,0.0324,0.0359,0.036,0.036,0.0447,0.0449,0.045,0.0615,0.0618,0.0622,0.0625,0.0772,0.0773,0.0775,0,0,0,0,0,0,0,0,0,0,0,0,0,0.0371,0.0324,0.0359,0.045,0.0459,0.0447,0.0449,0.0451,0.0614,0.0618,0.0622,0.0627,0.0771,0.0773,0.0775,0.07,0,0,0.0781,0.0781,0,0,0,0,0,0,0,0,0.0368,0.0373,0.0436,0.0444,0.0454,0.0522,0.0491,0.0536,0.0613,0.0558,0.0624,0.0629,0.0688,0.0697,0.0708,0.0707,0.0713,0.0781,0.0782,0.0783,0.0783,0,0,0,0,0,0,0,0.0365,0.037,0.0397,0.0436,0.0447,0.0484,0.0496,0.05,0.0602,0.0564,0.0575,0.0578,0.0695,0.0706,0.0713,0.0715,0.0781,0.0782,0.0784,0.0784,0.0915,0.0917,0,0,0,0,0,0,0.0343,0.0366,0.0394,0.04,0.0417,0.0481,0.0495,0.0498,0.0601,0.0619,0.0574,0.0585,0.0701,0.0711,0.0719,0.0872,0.0783,0.0784,0.0786,0.0913,0.0916,0.0918,0,0,0,0,0,0,0.0342,0.0344,0.0391,0.0383,0.0391,0.0477,0.048,0.0498,0.0589,0.0608,0.0629,0.0656,0.0704,0.0716,0.0801,0.087,0.0785,0.0787,0.091,0.0914,0.0917,0.1025,0,0,0,0,0,0,0.034,0.0343,0.0368,0.0381,0.0391,0.045,0.0476,0.0496,0.0577,0.0595,0.0682,0.0696,0.0709,0.0798,0.0803,0.0871,0.0789,0.0907,0.0912,0.0916,0.1019,0.1032,0.1043,0,0,0,0,0,0.0338,0.0343,0.0368,0.0374,0.0412,0.0452,0.0463,0.0539,0.0578,0.0635,0.0693,0.0698,0.083,0.0801,0.0806,0.0877,0.0905,0.091,0.0915,0.1013,0.1029,0.1043,0,0,0,0,0,0,0.0339,0.036,0.0389,0.0402,0.0456,0.0481,0.0521,0.0569,0.0655,0.0689,0.0716,0.0734,0.0833,0.0831,0.0798,0.0927,0.0872,0.0878,0.0944,0.0959,0.0972,0.0996,0.079,0,0,0,0,0,0.0343,0.0368,0.0395,0.042,0.0438,0.0491,0.0525,0.0585,0.0639,0.0687,0.0748,0.0802,0.0838,0.0886,0.0915,0.0975,0.0952,0.1027,0.1039,0.105,0.1074,0.1071,0.1085,0.0935,0.0935,0.0935,0,0,0.0357,0.0365,0.0388,0.0425,0.0461,0.0509,0.0527,0.06,0.0673,0.068,0.0813,0.0844,0.0861,0.0944,0.0989,0.0968,0.1082,0.1057,0.1066,0.1084,0.1078,0.1092,0.1105,0.0939,0.0938,0.0938,0,0,0.037,0.0396,0.0422,0.0467,0.0531,0.0561,0.0598,0.0673,0.0749,0.0854,0.0874,0.0947,0.103,0.1052,0.1066,0.1154,0.1137,0.1186,0.1284,0.1281,0.1293,0.1304,0.1295,0.1303,0.1204,0.1204,0.1205,0,0.0401,0.042,0.0443,0.048,0.0529,0.0592,0.0654,0.0715,0.083,0.088,0.0929,0.1048,0.1073,0.1133,0.1198,0.1183,0.1187,0.1225,0.1297,0.1306,0.1315,0.1303,0.1311,0.121,0.121,0.1209,0.1208,0,0.042,0.0469,0.0485,0.0556,0.0615,0.068,0.0754,0.0847,0.0942,0.1001,0.1127,0.117,0.1255,0.1269,0.1279,0.1361,0.1345,0.13,0.1256,0.1336,0.1319,0.1325,0.1219,0.1217,0.1215,0.1213,0,0,0.0422,0.0491,0.0511,0.0561,0.0671,0.0715,0.0829,0.0931,0.1027,0.1141,0.1255,0.1336,0.1394,0.1415,0.1432,0.1449,0.1521,0.1444,0.1441,0.1431,0.1537,0.1336,0.1323,0.1506,0.1508,0.1509,0.15,0,0.0453,0.0524,0.0562,0.0674,0.0724,0.0816,0.0924,0.1033,0.1147,0.1274,0.1316,0.1443,0.1436,0.1531,0.1542,0.1534,0.1546,0.1529,0.1465,0.1463,0.127,0.1325,0.1515,0.1504,0.1506,0.1507,0.1508,0,0.0465,0.0518,0.0627,0.0745,0.078,0.0892,0.1071,0.1178,0.1328,0.1422,0.1532,0.1585,0.167,0.1652,0.1664,0.167,0.164,0.16,0.1597,0.1378,0.1273,0.1407,0.1518,0.1517,0.1517,0.1516,0.1515,0,0.0445,0.0558,0.0651,0.0698,0.0851,0.0965,0.1089,0.1262,0.1364,0.1563,0.1646,0.1733,0.1809,0.1791,0.1702,0.1746,0.1641,0.167,0.1437,0.1422,0.1558,0.1547,0.1659,0.1659,0.1659,0.1659,0.1659,0,0.0439,0.0522,0.0679,0.0736,0.0909,0.1025,0.1234,0.1361,0.1544,0.1594,0.1762,0.1766,0.1859,0.1784,0.1727,0.1557,0.165,0.1466,0.1408,0.1604,0.1598,0.1562,0.1551,0.1658,0.1658,0.1658,0.1658,0,0.0404,0.05,0.0612,0.0809,0.091,0.1058,0.133,0.1426,0.1633,0.1706,0.1776,0.1849,0.176,0.1715,0.164,0.1561,0.1427,0.1318,0.15,0.145,0.124,0.1235,0.1194,0.1187,0.1181,0.1176,0.1172,0,0.0384,0.0439,0.0662,0.0764,0.0891,0.1128,0.1262,0.1492,0.1518,0.1641,0.1582,0.1625,0.1604,0.1365,0.1337,0.1219,0.1165,0.116,0.1276,0.1246,0.1194,0.1199,0.1202,0.1162,0.1161,0.1159,0.1157,0,0.0333,0.043,0.0509,0.0717,0.0894,0.1047,0.1215,0.1233,0.136,0.1533,0.1419,0.1411,0.1272,0.1218,0.1105,0.0996,0.1232,0.1099,0.1116,0.1225,0.1206,0.1162,0.1172,0.1136,0.1139,0.1141,0.1143,0,0.0302,0.0341,0.0448,0.0634,0.0809,0.0886,0.1017,0.1022,0.1115,0.1205,0.1108,0.1115,0.1181,0.1081,0.0917,0.0856,0.0914,0.0963,0.0988,0.1012,0.0945,0.0894,0.0687,0,0,0,0,0,0.0254,0.0277,0.0367,0.0522,0.0657,0.0779,0.0899,0.0973,0.105,0.0937,0.1053,0.0902,0.0841,0.0833,0.0735,0.08,0.0874,0.0684,0.0934,0.102,0.1044,0.0977,0,0,0,0,0,0,0.0227,0.0284,0.0299,0.0364,0.0447,0.0575,0.0654,0.0714,0.0651,0.0753,0.0704,0.0856,0.0767,0.0866,0.0717,0.0712,0.0855,0.0712,0.0709,0.1006,0.1028,0.1048,0.0987,0,0,0,0,0]},{"header":{"parameterUnit":"m.s-1","parameterCategory":2,"la1":30.2991,"la2":30.254,"lo1":-89.0895,"lo2":-89.0444,"dy":0.0017,"dx":0.0017,"nx":28,"ny":28,"refTime":"2024-06-30T09:00:00:Z","depth":"4","parameterNumber":3,"parameterNumberName":"V-component_of_CURRENTS"},"data":[0,0,0,0,0,0,0,0,0,0,0,0,0,0,0,0,0,0,0,0,0,0,0,0,0,0,0,0,0,0,0,0,0,0,0,0,0,0,0,0,0,0,0,0,0,0,0,0,0,0,0,0,0,0,0,0,0,0,0.0087,0.0086,0,0.0005,0.0004,0.0003,-0.0082,-0.0083,-0.0084,-0.0085,-0.0231,-0.0234,-0.0237,0,0,0,0,0,0,0,0,0,0,0,0,0,0.0115,0.0115,0.0087,0.0086,0.0085,0.0005,0.0004,0.0003,-0.0082,-0.0083,-0.0085,-0.0086,-0.023,-0.0234,-0.0237,0,0,0,0,0,0,0,0,0,0,0,0,0,0.0075,0.0115,0.0087,0.0033,0.0028,0.0005,0.0004,0.0002,-0.0081,-0.0083,-0.0085,-0.0086,-0.0229,-0.0233,-0.0237,-0.0229,0,0,-0.025,-0.0252,0,0,0,0,0,0,0,0,0.0077,0.0074,0.0042,0.0037,0.003,-0.003,-0.004,-0.0078,-0.0081,-0.004,-0.0085,-0.0087,-0.0168,-0.0178,-0.0189,-0.0236,-0.0242,-0.0251,-0.0253,-0.0255,-0.0256,0,0,0,0,0,0,0,0.008,0.0076,0.0054,0.0041,0.0034,-0.0006,-0.0013,-0.0048,-0.0095,-0.0044,-0.005,-0.0058,-0.0172,-0.0184,-0.0193,-0.0245,-0.0251,-0.0254,-0.0257,-0.0259,-0.0415,-0.0417,0,0,0,0,0,0,0.0096,0.008,0.0056,0.0051,0.005,-0.0005,-0.0013,-0.0009,-0.0094,-0.0108,-0.0057,-0.0062,-0.0176,-0.0188,-0.0199,-0.0288,-0.0255,-0.0259,-0.0262,-0.0414,-0.0416,-0.0417,0,0,0,0,0,0,0.0097,0.0095,0.006,0.0063,0.0055,-0.0003,0.0002,-0.001,-0.0049,-0.0103,-0.0118,-0.0088,-0.0178,-0.0193,-0.0264,-0.029,-0.0261,-0.0265,-0.0412,-0.0414,-0.0417,-0.0406,0,0,0,0,0,0,0.0098,0.0096,0.0094,0.0065,0.0056,0.0028,0.0003,-0.001,-0.0049,-0.0058,-0.0133,-0.0147,-0.0181,-0.0258,-0.0268,-0.0296,-0.0268,-0.041,-0.0413,-0.0416,-0.0404,-0.0407,-0.041,0,0,0,0,0,0.01,0.011,0.0095,0.0091,0.0059,0.0028,0.0019,-0.0029,-0.0049,-0.007,-0.0129,-0.0146,-0.0285,-0.0262,-0.0274,-0.0304,-0.0408,-0.0412,-0.0416,-0.0403,-0.0407,-0.041,0,0,0,0,0,0,0.0117,0.0101,0.0084,0.0087,0.005,0.0013,-0.0001,-0.0036,-0.0095,-0.011,-0.0162,-0.0181,-0.0258,-0.0281,-0.0254,-0.036,-0.0351,-0.0357,-0.0337,-0.0341,-0.0344,-0.0323,-0.0272,0,0,0,0,0,0.0125,0.0123,0.0095,0.0089,0.0083,0.0038,0.0017,-0.0021,-0.007,-0.0098,-0.0159,-0.022,-0.0275,-0.0309,-0.0364,-0.041,-0.0408,-0.044,-0.0444,-0.0446,-0.0439,-0.0457,-0.046,-0.0429,-0.0429,-0.0429,0,0,0.0125,0.0118,0.0113,0.0091,0.0069,0.0055,0.002,-0.0015,-0.0046,-0.0103,-0.0174,-0.0238,-0.0293,-0.0359,-0.0394,-0.0384,-0.0454,-0.0451,-0.0452,-0.0443,-0.0461,-0.0463,-0.0465,-0.0432,-0.0431,-0.0431,0,0,0.0137,0.0128,0.0135,0.0114,0.0078,0.0051,0.0039,-0.0018,-0.0061,-0.0136,-0.0185,-0.0259,-0.0353,-0.039,-0.0419,-0.0468,-0.0475,-0.0501,-0.0493,-0.0511,-0.0513,-0.0514,-0.0505,-0.0506,-0.0496,-0.0496,-0.0496,0,0.0137,0.015,0.0125,0.0129,0.0115,0.0053,0.005,0.0005,-0.0085,-0.0114,-0.0166,-0.0303,-0.0361,-0.0408,-0.0447,-0.0472,-0.0479,-0.0469,-0.0511,-0.0513,-0.0515,-0.0505,-0.0506,-0.0496,-0.0496,-0.0496,-0.0496,0,0.0158,0.0163,0.0168,0.0156,0.013,0.0115,0.0062,0.0009,-0.0062,-0.0112,-0.0208,-0.0299,-0.0376,-0.0416,-0.0457,-0.05,-0.05,-0.0514,-0.0491,-0.0516,-0.0505,-0.0506,-0.0496,-0.0496,-0.0496,-0.0496,0,0,0.0183,0.0184,0.0187,0.0191,0.0146,0.0131,0.0083,0.0034,0.0011,-0.0112,-0.0151,-0.0283,-0.0345,-0.0382,-0.0443,-0.0473,-0.0506,-0.051,-0.0511,-0.048,-0.0532,-0.0514,-0.0513,-0.0533,-0.0533,-0.0534,-0.0515,0,0.0208,0.024,0.0219,0.0222,0.0235,0.0171,0.0139,0.0075,-0.0,-0.0059,-0.0159,-0.0228,-0.0324,-0.0371,-0.0425,-0.049,-0.0511,-0.0508,-0.053,-0.0529,-0.0494,-0.0514,-0.0535,-0.0515,-0.0516,-0.0516,-0.0516,0,0.0239,0.0262,0.029,0.0277,0.0276,0.0254,0.0205,0.0164,0.0079,0.0019,-0.0073,-0.0158,-0.0248,-0.0318,-0.0429,-0.043,-0.0486,-0.0527,-0.0527,-0.0512,-0.0513,-0.0491,-0.0518,-0.0517,-0.0517,-0.0517,-0.0517,0,0.0291,0.0304,0.0334,0.0332,0.0309,0.0293,0.0259,0.0186,0.0183,0.0076,0.006,-0.008,-0.0132,-0.0245,-0.0382,-0.0409,-0.0474,-0.0507,-0.0527,-0.0524,-0.0547,-0.0546,-0.0557,-0.0557,-0.0557,-0.0557,-0.0557,0,0.0331,0.036,0.0363,0.0385,0.0409,0.035,0.0355,0.0299,0.0259,0.0244,0.0108,0.0055,-0.0122,-0.0202,-0.0335,-0.0434,-0.0437,-0.0521,-0.0523,-0.0544,-0.0543,-0.0547,-0.0546,-0.0556,-0.0556,-0.0556,-0.0557,0,0.038,0.0393,0.0439,0.0438,0.0441,0.0452,0.0452,0.0461,0.0399,0.0378,0.0351,0.0195,0.0033,-0.0099,-0.0265,-0.0339,-0.0448,-0.047,-0.0453,-0.0455,-0.0495,-0.0494,-0.0493,-0.0492,-0.0492,-0.0491,-0.0491,0,0.041,0.044,0.0491,0.0533,0.0537,0.0554,0.0575,0.0535,0.0522,0.0427,0.0406,0.0279,0.0137,-0.0048,-0.0223,-0.0399,-0.0434,-0.0434,-0.051,-0.0488,-0.0491,-0.0491,-0.0491,-0.049,-0.049,-0.049,-0.0489,0,0.0451,0.0472,0.0502,0.0604,0.0651,0.0696,0.0684,0.0671,0.0583,0.0608,0.0438,0.0295,0.0139,-0.008,-0.0174,-0.0326,-0.0415,-0.0429,-0.0433,-0.0505,-0.0484,-0.0487,-0.0488,-0.0487,-0.0488,-0.0488,-0.0488,0,0.0467,0.0495,0.0544,0.0623,0.073,0.0737,0.0724,0.066,0.0646,0.0513,0.045,0.0249,0.0153,-0.0042,-0.0171,-0.0275,-0.033,-0.0343,-0.0352,-0.0356,-0.0341,-0.0297,-0.0238,0,0,0,0,0,0.0459,0.0479,0.0555,0.0602,0.0725,0.0777,0.0764,0.0722,0.0638,0.0545,0.049,0.0312,0.0086,-0.0034,-0.0142,-0.0187,-0.0352,-0.0312,-0.0372,-0.0476,-0.0478,-0.0485,0,0,0,0,0,0,0.0448,0.0509,0.0528,0.0597,0.0644,0.0728,0.0723,0.0651,0.0556,0.0477,0.0342,0.0342,0.0104,0.0162,-0.0124,-0.0159,-0.02,-0.0398,-0.0399,-0.0475,-0.0477,-0.0479,-0.0486,0,0,0,0,0]}]]